Flag for Austria Weather past 2 weeks in Wels, Upper Austria, Austria

Now
58 °F

Overcast.


Feels Like: N/A
Forecast: 55 / 69 °F
Wind: N/A

Location: Linz / Hoersching-Flughafen

Current Time: Sep 3, 2015 at 2:14:25 AM

Latest Report: Sep 3, 2015 at 1:00 AM


Visibility: 7 mi

Pressure: 30.02 "Hg

Humidity: 94%

Dew point: 56 °F

Location of WelsLocation

Historic Weather in Wels — Graph

°F

Wels temperature yesterday

Maximum temperature yesterday: 69 °F (at 12:00 AM)
Minimum temperature yesterday: 58 °F (at 11:00 PM)
Average temperature yesterday: 64 °F

Past Weeks' High & Low Weather Summary

 TemperatureHumidityPressure
High96 °F (Aug 31, 5:00 PM)96% (Aug 21, 12:00 AM)30.27 "Hg (Aug 21, 12:00 AM)
Low46 °F (Aug 26, 6:00 AM)17% (Aug 26, 4:00 PM)29.64 "Hg (Sep 1, 6:00 PM)
Average69 °F63%30.01 "Hg
* Reported Midnight between Aug 18 and Aug 19 — Midnight between Sep 2 and Sep 3, Wels, Weather by CustomWeather, © 2015

Note: Actual official high and low records may vary slightly from our data, if they occured in-between our weather recording intervals... More about our weather records

Advertising

Wels weather history for previous 24 hours

 ConditionsComfort  
Time TempWeatherWind HumidityBarometerVisibility
12:00 AM
Thu, Sep 3
58 °FOvercast.N/A95%30.03 "Hg9 mi
11:00 PM
Wed, Sep 2
58 °FOvercast.N/A91%30.03 "Hg14 mi
10:00 PM60 °FOvercast.N/A92%30.03 "Hg9 mi
9:00 PM61 °FOvercast.N/A92%30.01 "Hg7 mi
8:00 PM61 °FLight rain. Overcast.N/A92%30.00 "Hg8 mi
7:00 PM60 °FSprinkles. Low clouds.N/A95%29.99 "Hg2 mi
6:00 PM63 °FSprinkles. Overcast.5 mph90%29.98 "Hg4 mi
5:00 PM65 °FOvercast.N/A78%29.96 "Hg15 mi
4:00 PM67 °FPassing clouds.9 mph71%29.96 "Hg5 mi
3:00 PM67 °FOvercast.N/A66%29.98 "Hg25 mi
2:00 PM67 °FOvercast.N/A64%29.98 "Hg25 mi
1:00 PM66 °FOvercast.N/A66%30.00 "Hg25 mi
12:00 PM65 °FOvercast.N/A72%30.02 "Hg28 mi
11:00 AM66 °FOvercast.N/A70%30.03 "Hg31 mi
10:00 AM64 °FOvercast.N/A76%30.03 "Hg28 mi
9:00 AM63 °FOvercast.N/A83%30.03 "Hg28 mi
8:00 AM62 °FOvercast.5 mph85%30.02 "Hg28 mi
7:00 AM61 °FOvercast.5 mph86%30.01 "Hg31 mi
4:00 AM63 °FLight rain. Overcast.6 mph90%29.99 "Hg28 mi
3:00 AM64 °FLight rain. Low clouds.5 mph94%29.97 "Hg12 mi
2:00 AM64 °FHeavy rain. Overcast.6 mph94%29.98 "Hg6 mi
Weather by CustomWeather, © 2015

See weather overviewHow to use our weather pages